When you browse on this site, cookies collect data to enhance your experience and personalize the content and advertising you see.
Visit our Privacy Policy to learn more. By continuing to use the site, you agree to this use of cookies and data.
  • In Spain
  • List of Countries
  • For 7 days
  • Water Temperature
  • Satellite Maps
  • Weather Map
  • Weather Widgets
  • user-avatar
    Login

    Hourly Weather Fier

    Today, 17 January, Thursday

    Time Temperature Precipitation Wind Pressure Humidity
    00:00 +4°C° 0 mm 2 mps 766 mmHg 63%
    01:00 +4°C° 0 mm 2 mps 766 mmHg 63%
    02:00 +4°C° 0 mm 2 mps 765 mmHg 63%
    03:00 +4°C° 0 mm 2 mps 765 mmHg 63%
    04:00 +3°C° 0 mm 3 mps 765 mmHg 64%
    05:00 +3°C° 0 mm 3 mps 765 mmHg 63%
    06:00 +3°C° 0 mm 3 mps 765 mmHg 63%
    07:00 +3°C° 0 mm 3 mps 765 mmHg 65%
    08:00 +5°C° 0 mm 3 mps 765 mmHg 60%
    09:00 +8°C° 0 mm 3 mps 765 mmHg 56%
    10:00 +10°C° 0 mm 3 mps 764 mmHg 52%
    11:00 +12°C° 0 mm 2 mps 764 mmHg 49%
    12:00 +13°C° 0 mm 2 mps 764 mmHg 46%
    13:00 +14°C° 0 mm 2 mps 764 mmHg 43%
    14:00 +13°C° 0 mm 2 mps 763 mmHg 48%
    15:00 +12°C° 0 mm 2 mps 763 mmHg 53%
    16:00 +12°C° 0 mm 2 mps 763 mmHg 58%
    17:00 +10°C° 0 mm 2 mps 763 mmHg 60%
    18:00 +9°C° 0 mm 3 mps 763 mmHg 63%
    19:00 +8°C° 0 mm 3 mps 763 mmHg 65%
    20:00 +6°C° 0 mm 4 mps 763 mmHg 67%
    21:00 +6°C° 0 mm 4 mps 763 mmHg 68%
    22:00 +5°C° 0 mm 4 mps 763 mmHg 69%
    23:00 +5°C° 0 mm 4 mps 763 mmHg 71%

    Tomorrow, 18 January, Friday

    Time Temperature Precipitation Wind Pressure Humidity
    00:00 +6°C° 0 mm 4 mps 763 mmHg 72%
    01:00 +6°C° 0 mm 4 mps 763 mmHg 74%
    02:00 +6°C° 0.1 mm 4 mps 762 mmHg 76%
    03:00 +6°C° 0.1 mm 4 mps 762 mmHg 77%
    04:00 +6°C° 0.1 mm 4 mps 762 mmHg 78%
    05:00 +6°C° 0 mm 4 mps 762 mmHg 79%
    06:00 +6°C° 0 mm 4 mps 761 mmHg 79%
    07:00 +6°C° 0 mm 4 mps 761 mmHg 79%
    08:00 +7°C° 0.5 mm 4 mps 761 mmHg 80%
    09:00 +7°C° 0.5 mm 4 mps 761 mmHg 80%
    10:00 +8°C° 0.5 mm 4 mps 761 mmHg 81%
    11:00 +8°C° 0.6 mm 5 mps 761 mmHg 80%
    12:00 +9°C° 0.6 mm 5 mps 761 mmHg 79%
    13:00 +9°C° 0.6 mm 5 mps 760 mmHg 78%
    14:00 +9°C° 0.1 mm 5 mps 760 mmHg 77%
    15:00 +9°C° 0.1 mm 5 mps 760 mmHg 77%
    16:00 +9°C° 0.1 mm 5 mps 760 mmHg 76%
    17:00 +9°C° 0.1 mm 5 mps 760 mmHg 78%
    18:00 +8°C° 0.1 mm 5 mps 760 mmHg 80%
    19:00 +7°C° 0.1 mm 5 mps 760 mmHg 81%
    20:00 +7°C° 0.2 mm 5 mps 760 mmHg 82%
    21:00 +7°C° 0.2 mm 5 mps 760 mmHg 83%
    22:00 +7°C° 0.2 mm 4 mps 760 mmHg 83%
    23:00 +7°C° 0.1 mm 4 mps 760 mmHg 83%

    Day after tomorrow, 19 January, Saturday

    Time Temperature Precipitation Wind Pressure Humidity
    00:00 +7°C° 0.1 mm 4 mps 760 mmHg 83%
    01:00 +7°C° 0.1 mm 4 mps 760 mmHg 83%
    02:00 +7°C° 0 mm 4 mps 760 mmHg 83%
    03:00 +7°C° 0 mm 4 mps 760 mmHg 84%
    04:00 +6°C° 0 mm 4 mps 760 mmHg 84%
    05:00 +6°C° 0 mm 4 mps 760 mmHg 83%
    06:00 +6°C° 0 mm 4 mps 760 mmHg 82%
    07:00 +6°C° 0 mm 4 mps 760 mmHg 81%
    08:00 +8°C° 0 mm 4 mps 760 mmHg 76%
    09:00 +10°C° 0 mm 4 mps 760 mmHg 71%
    10:00 +12°C° 0 mm 4 mps 760 mmHg 65%
    11:00 +13°C° 0 mm 4 mps 760 mmHg 62%
    12:00 +14°C° 0 mm 4 mps 759 mmHg 59%
    13:00 +16°C° 0 mm 3 mps 759 mmHg 56%
    14:00 +14°C° 0.4 mm 3 mps 759 mmHg 61%
    15:00 +14°C° 0.4 mm 3 mps 759 mmHg 65%
    16:00 +13°C° 0.4 mm 3 mps 759 mmHg 70%
    17:00 +12°C° 0.1 mm 3 mps 759 mmHg 73%
    18:00 +11°C° 0.1 mm 3 mps 759 mmHg 76%
    19:00 +10°C° 0.1 mm 3 mps 760 mmHg 78%
    20:00 +10°C° 0 mm 3 mps 760 mmHg 78%
    21:00 +9°C° 0 mm 3 mps 760 mmHg 78%
    22:00 +9°C° 0 mm 3 mps 760 mmHg 77%
    23:00 +9°C° 0.3 mm 3 mps 760 mmHg 78%

    20 January, Sunday

    Time Temperature Precipitation Wind Pressure Humidity
    00:00 +9°C° 0.3 mm 3 mps 760 mmHg 79%
    01:00 +9°C° 0.3 mm 3 mps 760 mmHg 80%
    02:00 +9°C° 0.4 mm 3 mps 760 mmHg 81%
    03:00 +9°C° 0.4 mm 3 mps 759 mmHg 81%
    04:00 +9°C° 0.4 mm 3 mps 759 mmHg 82%
    05:00 +8°C° 0.5 mm 3 mps 759 mmHg 83%
    06:00 +8°C° 0.5 mm 3 mps 760 mmHg 83%
    07:00 +8°C° 0.5 mm 3 mps 760 mmHg 84%
    08:00 +9°C° 0.5 mm 3 mps 760 mmHg 79%
    09:00 +11°C° 0.5 mm 3 mps 760 mmHg 74%
    10:00 +12°C° 0.5 mm 3 mps 760 mmHg 69%
    11:00 +12°C° 0.5 mm 3 mps 760 mmHg 67%
    12:00 +13°C° 0.5 mm 3 mps 760 mmHg 65%
    13:00 +13°C° 0.5 mm 3 mps 760 mmHg 64%
    14:00 +14°C° 0.3 mm 2 mps 760 mmHg 67%
    15:00 +13°C° 0.3 mm 2 mps 760 mmHg 71%
    16:00 +13°C° 0.3 mm 1 mps 760 mmHg 75%
    17:00 +12°C° 0.1 mm 1 mps 760 mmHg 78%
    18:00 +11°C° 0.1 mm 1 mps 760 mmHg 80%
    19:00 +10°C° 0.1 mm 1 mps 761 mmHg 82%
    20:00 +10°C° 0 mm 1 mps 761 mmHg 83%
    21:00 +8°C° 0 mm 2 mps 761 mmHg 83%
    22:00 +8°C° 0 mm 2 mps 762 mmHg 84%
    23:00 +8°C° 0 mm 2 mps 762 mmHg 83%

    21 January, Monday

    Time Temperature Precipitation Wind Pressure Humidity
    00:00 +8°C° 0 mm 3 mps 761 mmHg 83%
    01:00 +7°C° 0 mm 3 mps 761 mmHg 83%
    02:00 +7°C° 0 mm 3 mps 761 mmHg 82%
    03:00 +7°C° 0 mm 3 mps 761 mmHg 81%
    04:00 +7°C° 0 mm 3 mps 761 mmHg 80%
    05:00 +7°C° 0 mm 3 mps 761 mmHg 78%
    06:00 +7°C° 0 mm 3 mps 761 mmHg 76%
    07:00 +5°C° 0 mm 4 mps 761 mmHg 74%
    08:00 +7°C° 0 mm 4 mps 761 mmHg 69%
    09:00 +10°C° 0 mm 4 mps 761 mmHg 65%
    10:00 +11°C° 0 mm 4 mps 761 mmHg 61%
    11:00 +12°C° 0 mm 4 mps 760 mmHg 60%
    12:00 +13°C° 0 mm 5 mps 760 mmHg 60%
    13:00 +14°C° 0 mm 5 mps 759 mmHg 59%
    14:00 +13°C° 0.1 mm 5 mps 759 mmHg 64%
    15:00 +12°C° 0.1 mm 5 mps 759 mmHg 68%
    16:00 +10°C° 0.1 mm 5 mps 759 mmHg 73%
    17:00 +10°C° 0.5 mm 5 mps 759 mmHg 75%
    18:00 +9°C° 0.5 mm 5 mps 759 mmHg 77%
    19:00 +8°C° 0.5 mm 5 mps 759 mmHg 79%
    20:00 +8°C° 0.7 mm 5 mps 758 mmHg 79%
    21:00 +8°C° 0.7 mm 5 mps 758 mmHg 79%
    22:00 +8°C° 0.7 mm 5 mps 758 mmHg 79%
    23:00 +8°C° 0.8 mm 6 mps 757 mmHg 79%

    22 January, Tuesday

    Time Temperature Precipitation Wind Pressure Humidity
    00:00 +8°C° 0.8 mm 6 mps 757 mmHg 80%
    01:00 +8°C° 0.8 mm 6 mps 756 mmHg 80%
    02:00 +8°C° 0.7 mm 6 mps 756 mmHg 79%
    03:00 +8°C° 0.7 mm 7 mps 755 mmHg 79%
    04:00 +8°C° 0.7 mm 7 mps 755 mmHg 78%
    05:00 +8°C° 1 mm 6 mps 754 mmHg 79%
    06:00 +8°C° 1 mm 6 mps 754 mmHg 81%
    07:00 +8°C° 1 mm 6 mps 754 mmHg 82%
    08:00 +9°C° 0.4 mm 6 mps 754 mmHg 80%
    09:00 +9°C° 0.4 mm 6 mps 754 mmHg 77%
    10:00 +10°C° 0.4 mm 6 mps 754 mmHg 74%
    11:00 +11°C° 0.2 mm 6 mps 754 mmHg 70%
    12:00 +12°C° 0.2 mm 7 mps 753 mmHg 67%
    13:00 +13°C° 0.2 mm 8 mps 753 mmHg 63%
    14:00 +12°C° 0.4 mm 7 mps 753 mmHg 65%
    15:00 +12°C° 0.4 mm 7 mps 753 mmHg 68%
    16:00 +11°C° 0.4 mm 6 mps 752 mmHg 70%
    17:00 +10°C° 0.8 mm 6 mps 753 mmHg 74%
    18:00 +9°C° 0.8 mm 5 mps 753 mmHg 77%
    19:00 +8°C° 0.8 mm 4 mps 753 mmHg 81%
    20:00 +9°C° 1.1 mm 3 mps 753 mmHg 82%
    21:00 +9°C° 1.1 mm 3 mps 753 mmHg 82%
    22:00 +9°C° 1.1 mm 3 mps 753 mmHg 83%
    23:00 +9°C° 1 mm 3 mps 753 mmHg 83%
    Show more